• In Moldova, Republic
  • List of Countries
  • For 7 days
  • Water Temperature
  • Satellite Maps
  • Weather Map
  • Weather Widgets
  • user-avatar
    Login

    Hourly Weather Newcastle

    Today, 23 May, Tuesday

    Time Temperature Precipitation Wind Pressure Humidity
    00:00 +14°C° 0 mm 2 mps 766 mmHg 98%
    01:00 +14°C° 0 mm 2 mps 766 mmHg 99%
    02:00 +13°C° 0 mm 2 mps 765 mmHg 99%
    03:00 +13°C° 0 mm 2 mps 765 mmHg 99%
    04:00 +13°C° 0 mm 2 mps 765 mmHg 99%
    05:00 +13°C° 0.1 mm 2 mps 765 mmHg 99%
    06:00 +13°C° 0.1 mm 2 mps 765 mmHg 99%
    07:00 +14°C° 0.1 mm 2 mps 765 mmHg 99%
    08:00 +16°C° 0.1 mm 2 mps 765 mmHg 91%
    09:00 +18°C° 0.1 mm 2 mps 765 mmHg 84%
    10:00 +20°C° 0.1 mm 2 mps 765 mmHg 77%
    11:00 +21°C° 0.1 mm 2 mps 764 mmHg 69%
    12:00 +23°C° 0.1 mm 2 mps 764 mmHg 62%
    13:00 +25°C° 0.1 mm 2 mps 763 mmHg 54%
    14:00 +24°C° 0 mm 2 mps 763 mmHg 59%
    15:00 +23°C° 0 mm 2 mps 763 mmHg 63%
    16:00 +23°C° 0 mm 2 mps 763 mmHg 68%
    17:00 +20°C° 0 mm 2 mps 763 mmHg 74%
    18:00 +18°C° 0 mm 3 mps 763 mmHg 81%
    19:00 +16°C° 0 mm 3 mps 763 mmHg 87%
    20:00 +16°C° 0 mm 3 mps 763 mmHg 89%
    21:00 +16°C° 0 mm 3 mps 763 mmHg 91%
    22:00 +14°C° 0 mm 4 mps 763 mmHg 93%
    23:00 +14°C° 0 mm 3 mps 763 mmHg 91%

    Tomorrow, 24 May, Wednesday

    Time Temperature Precipitation Wind Pressure Humidity
    00:00 +14°C° 0 mm 3 mps 763 mmHg 90%
    01:00 +14°C° 0 mm 3 mps 762 mmHg 88%
    02:00 +14°C° 0.4 mm 3 mps 762 mmHg 89%
    03:00 +14°C° 0.4 mm 3 mps 762 mmHg 89%
    04:00 +14°C° 0.4 mm 3 mps 761 mmHg 90%
    05:00 +14°C° 0.1 mm 3 mps 761 mmHg 90%
    06:00 +14°C° 0.1 mm 4 mps 761 mmHg 90%
    07:00 +14°C° 0.1 mm 4 mps 761 mmHg 90%
    08:00 +17°C° 0 mm 5 mps 761 mmHg 82%
    09:00 +20°C° 0 mm 5 mps 761 mmHg 73%
    10:00 +22°C° 0 mm 6 mps 761 mmHg 64%
    11:00 +22°C° 0 mm 6 mps 761 mmHg 59%
    12:00 +23°C° 0 mm 6 mps 760 mmHg 53%
    13:00 +24°C° 0 mm 6 mps 759 mmHg 48%
    14:00 +23°C° 0 mm 5 mps 760 mmHg 48%
    15:00 +22°C° 0 mm 5 mps 760 mmHg 49%
    16:00 +21°C° 0 mm 4 mps 760 mmHg 49%
    17:00 +19°C° 0 mm 4 mps 761 mmHg 53%
    18:00 +17°C° 0 mm 5 mps 761 mmHg 57%
    19:00 +15°C° 0 mm 5 mps 762 mmHg 60%
    20:00 +15°C° 0 mm 5 mps 762 mmHg 63%
    21:00 +14°C° 0 mm 5 mps 763 mmHg 66%
    22:00 +13°C° 0 mm 5 mps 763 mmHg 68%
    23:00 +13°C° 0 mm 5 mps 764 mmHg 72%

    Day after tomorrow, 25 May, Thursday

    Time Temperature Precipitation Wind Pressure Humidity
    00:00 +12°C° 0 mm 5 mps 764 mmHg 76%
    01:00 +10°C° 0 mm 5 mps 764 mmHg 80%
    02:00 +11°C° 0 mm 4 mps 764 mmHg 82%
    03:00 +10°C° 0 mm 4 mps 764 mmHg 83%
    04:00 +10°C° 0 mm 4 mps 764 mmHg 85%
    05:00 +8°C° 0 mm 4 mps 764 mmHg 86%
    06:00 +8°C° 0 mm 4 mps 765 mmHg 86%
    07:00 +8°C° 0 mm 4 mps 765 mmHg 86%
    08:00 +11°C° 0 mm 4 mps 765 mmHg 78%
    09:00 +13°C° 0 mm 3 mps 765 mmHg 69%
    10:00 +16°C° 0 mm 3 mps 766 mmHg 60%
    11:00 +17°C° 0 mm 3 mps 765 mmHg 56%
    12:00 +19°C° 0 mm 3 mps 765 mmHg 51%
    13:00 +20°C° 0 mm 2 mps 764 mmHg 47%
    14:00 +19°C° 0 mm 2 mps 764 mmHg 52%
    15:00 +19°C° 0 mm 2 mps 764 mmHg 56%
    16:00 +18°C° 0 mm 2 mps 764 mmHg 60%
    17:00 +15°C° 0 mm 2 mps 764 mmHg 70%
    18:00 +13°C° 0 mm 1 mps 765 mmHg 81%
    19:00 +10°C° 0 mm 1 mps 765 mmHg 91%
    20:00 +10°C° 0 mm 1 mps 765 mmHg 92%
    21:00 +9°C° 0 mm 1 mps 766 mmHg 93%
    22:00 +9°C° 0 mm 1 mps 766 mmHg 94%
    23:00 +9°C° 0 mm 1 mps 766 mmHg 93%

    26 May, Friday

    Time Temperature Precipitation Wind Pressure Humidity
    00:00 +9°C° 0 mm 1 mps 765 mmHg 92%
    01:00 +10°C° 0 mm 1 mps 765 mmHg 91%
    02:00 +9°C° 0 mm 1 mps 765 mmHg 90%
    03:00 +8°C° 0 mm 2 mps 765 mmHg 89%
    04:00 +8°C° 0 mm 2 mps 765 mmHg 88%
    05:00 +8°C° 0 mm 2 mps 765 mmHg 86%
    06:00 +8°C° 0 mm 2 mps 766 mmHg 85%
    07:00 +8°C° 0 mm 2 mps 766 mmHg 83%
    08:00 +12°C° 0 mm 2 mps 766 mmHg 72%
    09:00 +15°C° 0 mm 2 mps 766 mmHg 60%
    10:00 +19°C° 0 mm 1 mps 767 mmHg 49%
    11:00 +20°C° 0 mm 1 mps 766 mmHg 46%
    12:00 +21°C° 0 mm 1 mps 766 mmHg 42%
    13:00 +23°C° 0 mm 1 mps 765 mmHg 39%
    14:00 +22°C° 0 mm 1 mps 765 mmHg 45%
    15:00 +21°C° 0 mm 1 mps 765 mmHg 51%
    16:00 +19°C° 0 mm 2 mps 765 mmHg 57%
    17:00 +17°C° 0 mm 2 mps 765 mmHg 69%
    18:00 +14°C° 0 mm 2 mps 766 mmHg 80%
    19:00 +12°C° 0 mm 2 mps 766 mmHg 91%
    20:00 +12°C° 0 mm 2 mps 767 mmHg 93%
    21:00 +12°C° 0 mm 2 mps 767 mmHg 95%
    22:00 +10°C° 0 mm 2 mps 767 mmHg 97%
    23:00 +10°C° 0 mm 2 mps 767 mmHg 98%

    27 May, Saturday

    Time Temperature Precipitation Wind Pressure Humidity
    00:00 +9°C° 0 mm 2 mps 767 mmHg 98%
    01:00 +9°C° 0 mm 2 mps 767 mmHg 99%
    02:00 +8°C° 0 mm 2 mps 766 mmHg 99%
    03:00 +8°C° 0 mm 2 mps 766 mmHg 99%
    04:00 +8°C° 0 mm 2 mps 766 mmHg 99%
    05:00 +8°C° 0 mm 2 mps 767 mmHg 99%
    06:00 +8°C° 0 mm 2 mps 767 mmHg 98%
    07:00 +8°C° 0 mm 2 mps 767 mmHg 98%
    08:00 +12°C° 0 mm 2 mps 767 mmHg 86%
    09:00 +14°C° 0 mm 3 mps 767 mmHg 74%
    10:00 +18°C° 0 mm 3 mps 767 mmHg 62%
    11:00 +19°C° 0 mm 3 mps 766 mmHg 57%
    12:00 +21°C° 0 mm 3 mps 765 mmHg 52%
    13:00 +22°C° 0 mm 3 mps 765 mmHg 47%
    14:00 +21°C° 0 mm 3 mps 765 mmHg 53%
    15:00 +21°C° 0 mm 3 mps 764 mmHg 58%
    16:00 +20°C° 0 mm 3 mps 764 mmHg 63%
    17:00 +18°C° 0 mm 3 mps 764 mmHg 72%
    18:00 +17°C° 0 mm 4 mps 765 mmHg 80%
    19:00 +14°C° 0 mm 4 mps 765 mmHg 88%
    20:00 +14°C° 0 mm 4 mps 765 mmHg 90%
    21:00 +13°C° 0 mm 4 mps 765 mmHg 92%
    22:00 +13°C° 0 mm 4 mps 765 mmHg 95%
    23:00 +12°C° 0 mm 4 mps 765 mmHg 94%

    28 May, Sunday

    Time Temperature Precipitation Wind Pressure Humidity
    00:00 +12°C° 0 mm 4 mps 765 mmHg 92%
    01:00 +12°C° 0 mm 3 mps 764 mmHg 91%
    02:00 +11°C° 0 mm 3 mps 764 mmHg 90%
    03:00 +11°C° 0 mm 3 mps 764 mmHg 89%
    04:00 +11°C° 0 mm 3 mps 764 mmHg 87%
    05:00 +11°C° 0 mm 3 mps 764 mmHg 87%
    06:00 +11°C° 0 mm 3 mps 764 mmHg 87%
    07:00 +11°C° 0 mm 3 mps 764 mmHg 87%
    08:00 +13°C° 0 mm 4 mps 764 mmHg 78%
    09:00 +17°C° 0 mm 4 mps 764 mmHg 68%
    10:00 +19°C° 0 mm 4 mps 764 mmHg 58%
    11:00 +21°C° 0 mm 4 mps 763 mmHg 52%
    12:00 +22°C° 0 mm 4 mps 762 mmHg 47%
    13:00 +23°C° 0 mm 4 mps 761 mmHg 41%
    14:00 +23°C° 0 mm 4 mps 761 mmHg 46%
    15:00 +22°C° 0 mm 3 mps 761 mmHg 50%
    16:00 +21°C° 0 mm 3 mps 761 mmHg 54%
    17:00 +20°C° 0 mm 3 mps 761 mmHg 59%
    18:00 +18°C° 0 mm 4 mps 762 mmHg 63%
    19:00 +15°C° 0 mm 4 mps 762 mmHg 68%
    20:00 +15°C° 0 mm 4 mps 762 mmHg 69%
    21:00 +15°C° 0 mm 4 mps 762 mmHg 70%
    22:00 +14°C° 0 mm 4 mps 762 mmHg 72%
    23:00 +14°C° 0 mm 4 mps 762 mmHg 73%
    Show more